Regional Weather Roundup
Issued by NWS State College, PA

Home | Current Version | Previous Version | Text Only | Print | Product List | Glossary On
Versions: 1 2 3 4 5 6 7 8 9 10 11 12 13 14 15 16 17 18 19 20 21 22 23 24 25 26 27 28 29 30 31 32 33 34 35 36 37 38 39 40 41 42 43 44 45 46 47 48 49 50
000
ASUS41 KCTP 181603
RWRCTP

REGIONAL WEATHER ROUNDUP
NATIONAL WEATHER SERVICE STATE COLLEGE PA
1200 PM EDT FRI AUG 18 2017

Note: "fair" indicates few or no clouds below 12,000 feet with no
significant weather and/or obstructions to visibility.

* = STATION THAT DOES NOT REPORT PRECIPITATION /E.G. RAIN...SNOW...ETC/
    THUNDER OR FOG.

PAZ002>004-007>009-013>016-020>023-029>032-181700-
WESTERN PENNSYLVANIA

CITY           SKY/WX    TMP DP  RH WIND       PRES   REMARKS
ERIE           SUNNY     78  68  71 W18       29.79R
MEADVILLE      MOSUNNY   77  66  68 SW12      29.83F
FRANKLIN*      MOSUNNY   75  70  83 W9        29.85F
NEW CASTLE     PTSUNNY   82  70  66 W12       29.84S
BEAVER COUNTY  MOSUNNY   82  68  61 W8        29.86S
BUTLER*        MOSUNNY   79  72  78 SW6       29.86F
PITTSBURGH INT PTSUNNY   79  71  76 W8        29.86S
PITTSBURGH     PTSUNNY   76  71  85 SW7       29.86S
INDIANA*       PTSUNNY   73  73 100 W5        29.89S
LATROBE        CLOUDY    72  72 100 SW7       29.88R
WASHINGTON CO* PTSUNNY   75  72  88 SW6       29.88S
$$

PAZ004>006-010>012-017>019-024>028-033>037-041-042-045-046-049>053-181700-
CENTRAL PENNSYLVANIA

CITY           SKY/WX    TMP DP  RH WIND       PRES   REMARKS
BRADFORD       MOSUNNY   76  68  76 SW9       29.86F
DUBOIS         CLOUDY    73  68  84 VRB6      29.87S
CLEARFIELD     LGT RAIN  73  71  93 SW7       29.87F
JOHNSTOWN      HVY RAIN  71  69  93 SW13G25   29.90S FOG
ALTOONA        CLOUDY    74  72  93 S6        29.87F
STATE COLLEGE  RAIN      73  72  94 SW8       29.88R VSB 1
WILLIAMSPORT   RAIN      76  75  97 W6        29.82S FOG
SELINSGROVE    LGT RAIN  78  76  93 SW5       29.84R FOG
FT INDIANTOWN  PTSUNNY   84  77  80 SW6       29.84F
CAPITAL CITY   CLOUDY    87  73  62 SW8       29.83F
HARRISBURG     CLOUDY    87  76  69 S8        29.82F HX  97
YORK           SUNNY     86  76  71 SW7       29.84F HX  96
$$

PAZ038>040-043-044-047-048-054-055-060>062-067>071-181700-
EASTERN PENNSYLVANIA

CITY           SKY/WX    TMP DP  RH WIND       PRES   REMARKS
SCRANTON       CLOUDY    81  73  76 SW6       29.85S
MOUNT POCONO   CLOUDY    73  71  93 SW10      29.92S
ALLENTOWN      CLOUDY    81  73  76 S8        29.86F
QUAKERTOWN*    CLOUDY    77  75  94 SW6       29.88F
READING        PTSUNNY   83  77  82 VRB6      29.83F
LANCASTER      MOSUNNY   85  77  77 VRB7      29.85F HX  95
COATESVILLE    CLOUDY    81  77  89 VRB5      29.89S
POTTSTOWN      CLOUDY    78  75  90 S5        29.88F FOG
BLUE BELL      CLOUDY    79  75  89 SW6       29.87F
DOYLESTOWN     CLOUDY    78  75  90 SW5       29.86F
WILLOW GROVE   NOT AVBL
NORTH PHILA    CLOUDY    82  76  81 VRB5      29.87F
PHILADELPHIA   CLOUDY    81  75  82 SW12      29.86F
$$




USA.gov is the U.S. government's official web portal to all federal, state and local government web resources and services.